Location: Lowman
(44.0835°N, 115.6207°W)
Time: 06:21:11
(UTC+00:00)

Envisat - Pass Details

Date: 30 November 2022
Orbit: 763 x 765 km, 98.2° (Epoch: 07 February)

Event Time Altitude Azimuth Distance (km) Brightness Sun altitude
Rises 11:13:22 0° 22° (NNE) 3,243 6.6 -39.4°
Reaches altitude 10° 11:15:55 10° 32° (NNE) 2,312 5.8 -38.9°
Enters shadow 11:16:29 13° 35° (NE) 2,119 5.6 -38.8°
